Powrót do katalogu

SL-14 DEB

AktywnyPO
NORAD 26030·DEBRIS·🇷🇺 Russia

Wystrzelony Sep 28, 1991 z Plesetsk Cosmodrome

Loading…

Następne Przeloty (najbliższe 24 godziny)

TLE

Starzejące sięSource: Space-Track

Epoka: Sep 8, 2026, 13:12 UTC

1 26030U 91068AU  26251.55005970  .00000042  00000-0  15827-3 0  9994
2 26030  82.6810 344.6156 0085640  91.0372 283.7124 12.67413404603178

Śledź SL-14 DEB w czasie rzeczywistym z AllMySat

Download on the App Store